Regional Weather Roundup
Issued by NWS Green Bay, WI

Home | Current Version | Previous Version | Text Only | Print | Product List | Glossary On
Versions: 1 2 3 4 5 6 7 8 9 10 11 12 13 14 15 16 17 18 19 20 21 22 23 24 25 26 27 28 29 30 31 32 33 34 35 36 37 38 39 40 41 42 43 44 45 46 47 48 49 50
000
ASUS43 KGRB 241311
RWRGRB

NORTH-CENTRAL AND NORTHEAST WISCONSIN REGIONAL WEATHER ROUNDUP
NATIONAL WEATHER SERVICE GREEN BAY WI
800 AM CDT SUN JUL 24 2016

WIZ005-009-010>012-018-019-241400-
NORTH CENTRAL WISCONSIN

CITY           SKY/WX    TMP DP  RH WIND       PRES   REMARKS
IRONWOOD       PTSUNNY   70  66  88 W13       29.76S
MANITOWISH WTR CLOUDY    68  68 100 W7        29.81R
ARBOR VITAE    SUNNY     72  69  91 SW6       29.81R
EAGLE RIVER    MOSUNNY   70  69  96 SW6       29.81R
LAND O LAKES   CLOUDY    70  68  95 W6        29.82R
RHINELANDER    SUNNY     73  68  84 SW7       29.82R
PHILLIPS       CLOUDY    69  69 100 SW6       29.80R
ANTIGO         FOG       69  69 100 CALM      29.83S VSB 1/2
TOMAHAWK       CLOUDY    69  68  96 CALM      29.81S FOG
MERRILL        CLOUDY    71  71 100 S5        29.81F FOG
$$

WIZ013-073-241400-
NORTHEAST WISCONSIN

CITY           SKY/WX    TMP DP  RH WIND       PRES   REMARKS
IRON MOUNTAIN  CLOUDY    71  68  90 S12G20    29.75R
MARINETTE      NOT AVBL
OCONTO         CLOUDY   N/A N/A N/A S5        29.80F
$$

WIZ017-030-035>037-045-241400-
CENTRAL WISCONSIN

CITY           SKY/WX    TMP DP  RH WIND       PRES   REMARKS
MEDFORD        FOG       69  69 100 SE5       29.81S VSB 1/2
WAUSAU         FOG       71  71 100 S6        29.80S VSB 1/2
MOSINEE        FOG       72  72 100 S6        29.82S VSB 1/4
MARSHFIELD     FOG       72  70  93 CALM      29.81R VSB 1/2
WISC RAPIDS    CLOUDY    75  72  90 S6        29.81S FOG
STEVENS POINT  DRZL/FOG  70  70 100 S3        29.81S VSB 3/4
WAUPACA        RAIN      74  73  99 E5        29.81F
SHAWANO        CLOUDY    74  71  92 CALM      29.81F FOG
CLINTONVILLE   CLOUDY    72  70  94 S6        29.81F FOG
WAUTOMA        CLOUDY    72  71  97 SE5       29.82S
$$

WIZ038-039-048-051-241400-
FOX VALLEY

CITY           SKY/WX    TMP DP  RH WIND       PRES   REMARKS
NWS GREEN BAY  CLOUDY    73  73 100 S8        29.82F
APPLETON       LGT RAIN  72  72 100 S8        29.81F
OSHKOSH        CLOUDY    73  71  93 S8        29.82F
FOND DU LAC    CLOUDY    75  72  90 S10       29.83F
$$

WIZ022-050-052-241400-
EAST CENTRAL WISCONSIN

CITY           SKY/WX    TMP DP  RH WIND       PRES   REMARKS
EPHRAIM        CLOUDY    70  69  96 S5        29.83F
WASHINGTON ISL NOT AVBL
STURGEON BAY   CLOUDY    73  70  90 S7        29.83F
MANITOWOC      RAIN      70  67  90 S14       29.85F
SHEBOYGAN      CLOUDY    72  69  90 S9        29.86S
$$

LMZ563-521-522-541>543-241400-
LAKESHORE

STATION/POSITION TIME  TEMP    WIND        PRES    VSBY  WAVE
                       AIR SEA DIR/SP/G                  HT/PER
                 (UTC) (F)     (DEG/KT/KT) (MB)    (MI)  (FT/S)
SHEBOYGAN LKSHOR 1300   63     170/ 14/ 15 1011.3R
KEWAUNEE LKSHORE 1200   61     210/  4/  8 1010.3R
NORTHPORT PIER   1200   71     170/  4/ 10 1010.2R
N MID LAKE BUOY  1250   69 69  200/ 10/ 12 1009.8F         3/ 4
S GREEN BAY BUOY 1200   73 75  190/ 12/ 14   N/A
CHAMBERS ISLAND  1200   72     170/  5/  8 1010.2R
MENOMINEE LKSHOR 1200   74     210/  7/  9 1009.4R
$$




USA.gov is the U.S. government's official web portal to all federal, state and local government web resources and services.